Simultaneous Nadir Overpasses (SNOs) Predictions

Prediction of SNOs between NOAA-19 and NPP Satellite Orbit:

Table of predicted SNOs for the next 14.0 days since TLE Epoch: 9/4/2015
Index Date (NOAA-19) Time (NOAA-19) Lat,Lon (NOAA-19) SZA (NOAA-19 ) Date (NPP) Time (NPP) Lat,Lon (NPP) SZA (NPP ) Distance(km) Time Diff (sec)
1 09/14/2015 10:27:15 -81.04, 149.83 98.92 09/14/2015 10:28:28 -81.04, 150.00 98.98 2.91 73
2 09/14/2015 11:18:14 81.04, -42.48 81.04 09/14/2015 11:19:13 81.04, -42.65 81.03 2.91 59
3 09/14/2015 12:09:17 -81.04, 124.52 98.92 09/14/2015 12:09:58 -81.05, 124.56 98.94 0.79 41
4 09/14/2015 13:00:17 81.04, -68.17 81.09 09/14/2015 13:00:43 81.04, -68.09 81.07 1.36 26
5 09/14/2015 13:51:19 -81.04, 99.20 98.92 09/14/2015 13:51:28 -81.05, 99.11 98.91 1.66 9
6 09/14/2015
